Location: Krakow
(50.0830°N, 19.9170°E)
Time: 10:32:36
(UTC+01:00)

Transit 2A - Pass Details

Date: 13 February 2023
Orbit: 591 x 964 km, 66.7° (Epoch: 21 March)

Event Time Altitude Azimuth Distance (km) Brightness Sun altitude
Rises 15:04:11 0° 222° (SW) 3,056 11.1 14.2°
Reaches altitude 10° 15:06:24 10° 224° (SW) 2,195 11.5 14.0°
Maximum altitude 15:11:25 72° 309° (NW) 816 6.5 13.4°
Drops below altitude 10° 15:17:05 10° 35° (NE) 2,463 8.1 12.7°
Sets 15:19:42 0° 37° (NE) 3,459 8.8 12.3°
